Location: Lawrence
(38.9720°N, 95.2350°W)
Time: 02:38:17
(UTC-05:00)

JAS-1B - Visible Passes

Search period start: 19 August 2017 00:00
Search period end: 29 August 2017 00:00
Orbit: 912 x 1743 km, 99.1° (Epoch: 18 August)

Date Brightness Start Highest point End Pass type
(mag) Time Alt. Az. Time Alt. Az. Time Alt. Az.
19 Aug 9.4 00:48:45 23° E 00:52:06 28° ENE 00:59:52 10° N visible
19 Aug 7.9 02:41:01 79° SW 02:41:25 80° WSW 02:51:26 10° NNW visible
19 Aug 9.4 04:33:18 17° W 04:33:18 17° W 04:39:10 10° NW visible
20 Aug 9.1 01:08:15 31° E 01:10:47 35° ENE 01:19:21 10° N visible
20 Aug 8.1 03:00:31 64° W 03:00:33 64° W 03:10:26 10° NNW visible
20 Aug 9.7 04:52:47 12° W 04:52:52 12° W 04:56:00 10° WNW visible
20 Aug 10.2 23:40:06 10° NE 23:41:42 10° NE 23:43:17 10° NE visible
21 Aug 8.8 01:27:45 41° E 01:29:33 45° ENE 01:38:44 10° N visible
21 Aug 8.4 03:20:01 49° W 03:20:01 49° W 03:29:19 10° NNW visible
21 Aug 10.0 23:55:39 10° ENE 00:00:07 14° NE 00:04:38 10° NNE visible
22 Aug 8.4 01:47:15 54° E 01:48:24 57° ENE 01:58:00 10° N visible
22 Aug 8.7 03:39:32 38° W 03:39:32 38° W 03:48:04 10° NNW visible
23 Aug 9.8 00:14:30 14° E 00:18:38 19° NE 00:24:43 10° NNE visible
23 Aug 8.1 02:06:46 70° E 02:07:19 72° ENE 02:17:14 10° N visible
23 Aug 9.0 03:59:02 29° W 03:59:02 29° W 04:06:37 10° NW visible
24 Aug 9.6 00:34:01 21° E 00:37:13 24° NE 00:44:27 10° N visible
24 Aug 8.0 02:26:17 89° ESE 02:26:20 89° ENE 02:36:20 10° NNW visible
24 Aug 9.3 04:18:34 21° W 04:18:34 21° W 04:24:53 10° NW visible
25 Aug 9.3 00:53:33 28° E 00:55:52 31° ENE 01:04:00 10° N visible
25 Aug 8.1 02:45:49 73° W 02:45:49 73° W 02:55:23 10° NNW visible
25 Aug 9.6 04:38:05 15° WNW 04:38:05 15° WNW 04:42:35 10° NW visible
26 Aug 8.9 01:13:04 37° E 01:14:37 39° ENE 01:23:26 10° N visible
26 Aug 8.3 03:05:21 57° W 03:05:21 57° W 03:14:20 10° NNW visible
26 Aug 9.8 04:57:37 10° WNW 04:57:37 10° WNW 04:57:42 10° WNW visible
26 Aug 10.1 23:42:07 10° ENE 23:45:18 12° NE 23:48:28 10° NNE visible
27 Aug 8.6 01:32:36 49° E 01:33:26 50° ENE 01:42:46 10° N visible
27 Aug 8.6 03:24:53 44° W 03:24:53 44° W 03:33:09 10° NNW visible
27 Aug 9.9 23:59:53 13° ENE 00:03:46 16° NE 00:08:59 10° NNE visible
28 Aug 8.3 01:52:09 63° ENE 01:52:20 63° ENE 02:02:00 10° N visible
28 Aug 8.9 03:44:25 33° WNW 03:44:25 33° WNW 03:51:50 10° NNW visible
